Location: Roland
(31.1349°N, 85.4372°W)
Time: 01:10:30
(UTC+00:00)

S-56A Canister/Altair - Pass Details

Date: 22 April 2021
Orbit: 632 x 2500 km, 38.9° (Epoch: 06 May)

Event Time Altitude Azimuth Distance (km) Brightness Sun altitude
Rises 02:35:41 0° 227° (SW) 5,653 12.1 -28.0°
Reaches altitude 10° 02:39:52 10° 223° (SW) 4,402 11.4 -28.7°
Enters shadow 02:50:01 56° 169° (S) 1,744 8.9 -30.4°
